Flag for U.S.A. Weather past 2 weeks in Simi Valley, California, U.S.A.

50 °F


Feels Like: 50 °F
Forecast: 42 / 61 °F
Wind: No wind

Location: Van Nuys Airport

Current Time: Nov 25, 2015 at 4:21:51 AM

Latest Report: Nov 25, 2015 at 3:51 AM

Visibility: 10 mi

Pressure: 29.82 "Hg

Humidity: 68%

Dew point: 40 °F

Location of Simi ValleyLocation

Historic Weather in Simi Valley — Graph


Simi Valley temperature yesterday

Maximum temperature yesterday: 67 °F (at 11:51 AM)
Minimum temperature yesterday: 47 °F (at 6:51 AM)
Average temperature yesterday: 57 °F

Past Weeks' High & Low Weather Summary

High88 °F (Nov 20, 12:51 PM)81% (Nov 25, 12:51 AM)30.29 "Hg (Nov 25, 12:51 AM)
Low45 °F (Nov 14, 6:51 AM)7% (Nov 19, 1:51 PM)29.81 "Hg (Nov 25, 2:51 AM)
Average63 °F30%29.98 "Hg
* Reported Nov 10 2:51 AM — Nov 25 2:51 AM, Simi Valley, Weather by CustomWeather, © 2015

Note: Actual official high and low records may vary slightly from our data, if they occured in-between our weather recording intervals... More about our weather records


Simi Valley weather history for previous 24 hours

Time TempWeatherWind HumidityBarometerVisibility
2:51 AM
Wed, Nov 25
52 °FPassing clouds.5 mph64%29.81 "Hg10 mi
1:51 AM55 °FPassing clouds.3 mph72%29.83 "Hg10 mi
12:51 AM56 °FPartly cloudy.3 mph81%29.83 "Hg10 mi
11:51 PM
Tue, Nov 24
57 °FOvercast.5 mph78%29.85 "Hg10 mi
10:51 PM57 °FOvercast.5 mph72%29.87 "Hg10 mi
9:51 PM57 °FMostly cloudy.5 mph72%29.87 "Hg10 mi
8:51 PM56 °FMostly cloudy.5 mph75%29.88 "Hg10 mi
7:51 PM57 °FPassing clouds.3 mph74%29.88 "Hg10 mi
6:51 PM57 °FPassing clouds.5 mph78%29.88 "Hg10 mi
5:51 PM58 °FPassing clouds.5 mph75%29.87 "Hg10 mi
4:51 PM58 °FPassing clouds.6 mph75%29.88 "Hg10 mi
3:51 PM62 °FScattered clouds.14 mph67%29.85 "Hg10 mi
2:51 PM65 °FScattered clouds.13 mph61%29.87 "Hg10 mi
1:51 PM67 °FSunny.9 mph51%29.87 "Hg10 mi
12:51 PM67 °FScattered clouds.9 mph49%29.89 "Hg10 mi
11:51 AM67 °FPassing clouds.10 mph51%29.92 "Hg10 mi
10:51 AM66 °FPassing clouds.12 mph56%29.94 "Hg10 mi
9:58 AM63 °FScattered clouds.6 mph60%29.97 "Hg10 mi
8:51 AM59 °FPartly sunny.No wind56%29.96 "Hg10 mi
7:51 AM54 °FScattered clouds.No wind62%29.96 "Hg10 mi
6:51 AM47 °FPassing clouds.3 mph66%29.95 "Hg10 mi
5:51 AM49 °FClear.No wind59%29.93 "Hg10 mi
4:51 AM48 °FPassing clouds.No wind63%29.93 "Hg10 mi
Weather by CustomWeather, © 2015

See weather overviewHow to use our weather pages